DLH8998 EDDF-LGKO

Flight info

Callsign DLH8998
Flight time N/A
Altitude 37000
Route CINDY8S/18 CINDY Z74 LAMPU DCT NOMBO Y161 MAH DCT VAVOR DCT RADIZ/N0444F390 DCT GORPA DCT DEVUL DCT REMSO DCT MEDUX UM867 KOGAT DCT ERANA UL737 TSL UN130 MES UN139 LURUS L995 KOPAR
Aircraft A332/H-SDE3GHIJ2J3J5M1RVWXY/LB2D1

Departure

Time 2026-04-17 09:06
Airport Frankfurt Main Airport (EDDF)

Arrival

Time N/A
Airport Kos International Airport "Ippokratis" (LGKO)
Time Latitude Longitude Altitude Speed Heading
2026-04-17 08:24 50.04802 8.56918 360 ft 0 kts 294°
2026-04-17 08:51 50.04797 8.56933 365 ft 4 kts 293°
2026-04-17 08:51 50.04787 8.56971 366 ft 3 kts 295°
2026-04-17 08:51 50.04780 8.57007 365 ft 4 kts 252°
2026-04-17 08:52 50.04795 8.57035 362 ft 3 kts 205°
2026-04-17 08:52 50.04787 8.57030 365 ft 4 kts 204°
2026-04-17 08:52 50.04779 8.57024 366 ft 0 kts 205°
2026-04-17 08:56 50.04775 8.57021 361 ft 2 kts 205°
2026-04-17 08:56 50.04738 8.56994 366 ft 8 kts 205°
2026-04-17 08:56 50.04717 8.56979 361 ft 0 kts 205°
2026-04-17 08:56 50.04712 8.56974 360 ft 9 kts 205°
2026-04-17 08:57 50.04609 8.56914 367 ft 17 kts 194°
2026-04-17 08:57 50.04543 8.56889 363 ft 9 kts 193°
2026-04-17 08:57 50.04478 8.56862 363 ft 10 kts 202°
2026-04-17 08:57 50.04438 8.56773 368 ft 11 kts 250°
2026-04-17 08:58 50.04408 8.56644 368 ft 14 kts 250°
2026-04-17 08:58 50.04373 8.56490 363 ft 16 kts 249°
2026-04-17 08:58 50.04334 8.56333 368 ft 14 kts 248°
2026-04-17 08:58 50.04297 8.56179 365 ft 16 kts 251°
2026-04-17 08:59 50.04255 8.56007 366 ft 18 kts 249°
2026-04-17 08:59 50.04210 8.55817 363 ft 20 kts 250°
2026-04-17 08:59 50.04173 8.55662 357 ft 15 kts 250°
2026-04-17 08:59 50.04135 8.55505 361 ft 15 kts 248°
2026-04-17 09:00 50.04097 8.55344 363 ft 16 kts 251°
2026-04-17 09:00 50.04060 8.55182 364 ft 16 kts 249°
2026-04-17 09:00 50.04017 8.55011 366 ft 18 kts 249°
2026-04-17 09:00 50.03971 8.54822 361 ft 20 kts 250°
2026-04-17 09:01 50.03921 8.54610 360 ft 22 kts 250°
2026-04-17 09:01 50.03865 8.54376 358 ft 24 kts 249°
2026-04-17 09:01 50.03785 8.54157 359 ft 24 kts 244°
2026-04-17 09:01 50.03725 8.53911 349 ft 25 kts 250°
2026-04-17 09:02 50.03683 8.53734 355 ft 16 kts 250°
2026-04-17 09:02 50.03640 8.53563 356 ft 18 kts 246°
2026-04-17 09:02 50.03592 8.53372 351 ft 20 kts 250°
2026-04-17 09:02 50.03544 8.53165 351 ft 21 kts 248°
2026-04-17 09:03 50.03490 8.52941 336 ft 21 kts 249°
2026-04-17 09:03 50.03450 8.52795 340 ft 6 kts 248°
2026-04-17 09:03 50.03439 8.52752 340 ft 0 kts 249°
2026-04-17 09:04 50.03435 8.52736 339 ft 3 kts 249°
2026-04-17 09:04 50.03424 8.52693 337 ft 6 kts 249°
2026-04-17 09:04 50.03414 8.52626 335 ft 7 kts 264°
2026-04-17 09:04 50.03393 8.52597 339 ft 3 kts 193°
2026-04-17 09:05 50.03382 8.52596 335 ft 0 kts 182°
2026-04-17 09:06 50.03174 8.52592 335 ft 64 kts 180°
2026-04-17 09:06 50.02512 8.52602 337 ft 125 kts 179°
2026-04-17 09:06 50.01455 8.52613 352 ft 177 kts 180°
2026-04-17 09:06 50.00205 8.52657 1034 ft 178 kts 178°
2026-04-17 09:07 49.98962 8.52722 1845 ft 185 kts 178°
2026-04-17 09:07 49.97618 8.52780 2326 ft 206 kts 174°
2026-04-17 09:07 49.96228 8.53661 2741 ft 227 kts 137°
2026-04-17 09:07 49.95469 8.55805 3393 ft 237 kts 105°
2026-04-17 09:08 49.94828 8.58136 4316 ft 234 kts 121°
2026-04-17 09:08 49.94155 8.60409 5228 ft 235 kts 102°
2026-04-17 09:08 49.93925 8.63039 5759 ft 255 kts 95°
2026-04-17 09:08 49.93808 8.65875 6420 ft 267 kts 95°
2026-04-17 09:09 49.93432 8.68676 7200 ft 273 kts 114°
2026-04-17 09:09 49.92322 8.71066 8044 ft 275 kts 138°
2026-04-17 09:09 49.90824 8.72892 8899 ft 278 kts 144°
2026-04-17 09:09 49.89237 8.74689 9714 ft 283 kts 140°
2026-04-17 09:10 49.86849 8.79728 10913 ft 309 kts 121°
2026-04-17 09:10 49.85771 8.82717 11221 ft 330 kts 120°
2026-04-17 09:10 49.84631 8.85912 11689 ft 344 kts 120°
2026-04-17 09:11 49.83453 8.89196 12344 ft 352 kts 119°
2026-04-17 09:11 49.82254 8.92520 13005 ft 359 kts 119°
2026-04-17 09:11 49.81016 8.95935 13716 ft 363 kts 119°
2026-04-17 09:11 49.79786 8.99321 14430 ft 367 kts 119°
2026-04-17 09:12 49.78520 9.02799 15121 ft 371 kts 119°
2026-04-17 09:12 49.77253 9.06275 15798 ft 376 kts 119°
2026-04-17 09:12 49.76134 9.09982 16471 ft 380 kts 108°
2026-04-17 09:12 49.75405 9.13891 17099 ft 384 kts 104°
2026-04-17 09:13 49.74583 9.17851 17714 ft 389 kts 114°
2026-04-17 09:13 49.73197 9.21488 18316 ft 394 kts 125°
2026-04-17 09:13 49.71535 9.24843 18935 ft 398 kts 129°
2026-04-17 09:13 49.69703 9.28107 19546 ft 402 kts 132°
2026-04-17 09:14 49.67824 9.31289 20090 ft 406 kts 133°
2026-04-17 09:14 49.65893 9.34527 20610 ft 411 kts 133°